When you browse on this site, cookies collect data to enhance your experience and personalize the content and advertising you see.
Visit our Privacy Policy to learn more. By continuing to use the site, you agree to this use of cookies and data.
  • In Hungary
  • List of Countries
  • For 7 days
  • Water Temperature
  • Weather Map
  • News
  • Weather Widgets
  • user-avatar
    Login

    Hourly Weather Lubki

    Today, 20 September, Friday

    Time Temperature Precipitation Wind Pressure Humidity
    00:00 +7°C° 0 mm 2 mps 745 mmHg 82%
    01:00 +6°C° 0 mm 2 mps 745 mmHg 84%
    02:00 +6°C° 0 mm 2 mps 745 mmHg 84%
    03:00 +6°C° 0 mm 2 mps 745 mmHg 85%
    04:00 +5°C° 0 mm 2 mps 745 mmHg 86%
    05:00 +6°C° 0 mm 2 mps 745 mmHg 85%
    06:00 +6°C° 0 mm 2 mps 745 mmHg 83%
    07:00 +7°C° 0 mm 2 mps 745 mmHg 81%
    08:00 +8°C° 0 mm 2 mps 745 mmHg 74%
    09:00 +10°C° 0 mm 3 mps 746 mmHg 67%
    10:00 +12°C° 0 mm 3 mps 746 mmHg 60%
    11:00 +12°C° 0 mm 3 mps 745 mmHg 56%
    12:00 +13°C° 0 mm 3 mps 745 mmHg 51%
    13:00 +14°C° 0 mm 4 mps 745 mmHg 47%
    14:00 +14°C° 0 mm 3 mps 745 mmHg 48%
    15:00 +14°C° 0 mm 3 mps 744 mmHg 50%
    16:00 +13°C° 0 mm 3 mps 744 mmHg 51%
    17:00 +12°C° 0 mm 3 mps 744 mmHg 56%
    18:00 +12°C° 0 mm 2 mps 744 mmHg 62%
    19:00 +11°C° 0 mm 1 mps 744 mmHg 67%
    20:00 +10°C° 0 mm 1 mps 745 mmHg 69%
    21:00 +9°C° 0 mm 2 mps 745 mmHg 71%
    22:00 +8°C° 0 mm 2 mps 745 mmHg 73%
    23:00 +8°C° 0 mm 2 mps 745 mmHg 74%

    Tomorrow, 21 September, Saturday

    Time Temperature Precipitation Wind Pressure Humidity
    00:00 +8°C° 0 mm 2 mps 745 mmHg 76%
    01:00 +8°C° 0 mm 2 mps 745 mmHg 78%
    02:00 +7°C° 0 mm 2 mps 744 mmHg 79%
    03:00 +8°C° 0 mm 1 mps 744 mmHg 80%
    04:00 +8°C° 0 mm 1 mps 744 mmHg 80%
    05:00 +8°C° 0 mm 2 mps 744 mmHg 78%
    06:00 +8°C° 0 mm 2 mps 744 mmHg 75%
    07:00 +9°C° 0 mm 2 mps 744 mmHg 72%
    08:00 +12°C° 0 mm 2 mps 744 mmHg 65%
    09:00 +14°C° 0 mm 2 mps 744 mmHg 58%
    10:00 +16°C° 0 mm 2 mps 744 mmHg 51%
    11:00 +17°C° 0 mm 2 mps 744 mmHg 49%
    12:00 +18°C° 0 mm 2 mps 743 mmHg 46%
    13:00 +19°C° 0 mm 2 mps 743 mmHg 44%
    14:00 +19°C° 0 mm 2 mps 743 mmHg 45%
    15:00 +19°C° 0 mm 2 mps 742 mmHg 46%
    16:00 +19°C° 0 mm 2 mps 742 mmHg 47%
    17:00 +17°C° 0 mm 2 mps 742 mmHg 52%
    18:00 +15°C° 0 mm 1 mps 742 mmHg 56%
    19:00 +14°C° 0 mm 1 mps 742 mmHg 61%
    20:00 +13°C° 0 mm 1 mps 742 mmHg 62%
    21:00 +13°C° 0 mm 1 mps 742 mmHg 64%
    22:00 +12°C° 0 mm 2 mps 742 mmHg 65%
    23:00 +12°C° 0 mm 2 mps 742 mmHg 65%

    Day after tomorrow, 22 September, Sunday

    Time Temperature Precipitation Wind Pressure Humidity
    00:00 +12°C° 0 mm 2 mps 742 mmHg 66%
    01:00 +10°C° 0 mm 2 mps 741 mmHg 67%
    02:00 +10°C° 0 mm 2 mps 741 mmHg 67%
    03:00 +10°C° 0 mm 2 mps 741 mmHg 68%
    04:00 +9°C° 0 mm 2 mps 741 mmHg 68%
    05:00 +10°C° 0 mm 2 mps 741 mmHg 67%
    06:00 +10°C° 0 mm 2 mps 740 mmHg 65%
    07:00 +12°C° 0 mm 2 mps 740 mmHg 63%
    08:00 +14°C° 0 mm 2 mps 740 mmHg 56%
    09:00 +16°C° 0 mm 2 mps 740 mmHg 48%
    10:00 +19°C° 0 mm 2 mps 740 mmHg 40%
    11:00 +20°C° 0 mm 2 mps 740 mmHg 38%
    12:00 +21°C° 0 mm 2 mps 739 mmHg 36%
    13:00 +23°C° 0 mm 2 mps 739 mmHg 34%
    14:00 +21°C° 0 mm 2 mps 739 mmHg 35%
    15:00 +21°C° 0 mm 2 mps 738 mmHg 37%
    16:00 +22°C° 0 mm 1 mps 738 mmHg 39%
    17:00 +19°C° 0 mm 2 mps 738 mmHg 45%
    18:00 +18°C° 0 mm 2 mps 737 mmHg 51%
    19:00 +16°C° 0 mm 2 mps 737 mmHg 57%
    20:00 +15°C° 0 mm 2 mps 737 mmHg 59%
    21:00 +15°C° 0 mm 2 mps 737 mmHg 62%
    22:00 +14°C° 0 mm 2 mps 737 mmHg 64%
    23:00 +14°C° 0 mm 2 mps 736 mmHg 64%

    23 September, Monday

    Time Temperature Precipitation Wind Pressure Humidity
    00:00 +14°C° 0 mm 2 mps 736 mmHg 65%
    01:00 +14°C° 0 mm 2 mps 736 mmHg 65%
    02:00 +14°C° 0 mm 2 mps 735 mmHg 63%
    03:00 +15°C° 0 mm 2 mps 735 mmHg 61%
    04:00 +15°C° 0 mm 2 mps 735 mmHg 59%
    05:00 +15°C° 0 mm 2 mps 734 mmHg 58%
    06:00 +15°C° 0 mm 2 mps 734 mmHg 57%
    07:00 +15°C° 0 mm 2 mps 734 mmHg 57%
    08:00 +16°C° 0 mm 2 mps 734 mmHg 56%
    09:00 +16°C° 0 mm 1 mps 734 mmHg 54%
    10:00 +18°C° 0 mm 1 mps 734 mmHg 53%
    11:00 +19°C° 0 mm 1 mps 734 mmHg 50%
    12:00 +20°C° 0 mm 1 mps 734 mmHg 46%
    13:00 +21°C° 0 mm 1 mps 733 mmHg 42%
    14:00 +21°C° 0 mm 1 mps 733 mmHg 44%
    15:00 +21°C° 0 mm 1 mps 733 mmHg 46%
    16:00 +21°C° 0 mm 1 mps 733 mmHg 48%
    17:00 +20°C° 0 mm 1 mps 733 mmHg 52%
    18:00 +19°C° 0 mm 1 mps 733 mmHg 55%
    19:00 +18°C° 0 mm 1 mps 733 mmHg 59%
    20:00 +18°C° 0 mm 1 mps 733 mmHg 61%
    21:00 +16°C° 0 mm 1 mps 733 mmHg 62%
    22:00 +16°C° 0 mm 1 mps 733 mmHg 64%
    23:00 +16°C° 0 mm 1 mps 733 mmHg 67%

    24 September, Tuesday

    Time Temperature Precipitation Wind Pressure Humidity
    00:00 +15°C° 0 mm 1 mps 733 mmHg 70%
    01:00 +15°C° 0 mm 2 mps 733 mmHg 73%
    02:00 +14°C° 0 mm 2 mps 734 mmHg 74%
    03:00 +14°C° 0 mm 2 mps 734 mmHg 76%
    04:00 +14°C° 0 mm 2 mps 734 mmHg 77%
    05:00 +13°C° 0 mm 3 mps 734 mmHg 79%
    06:00 +13°C° 0 mm 3 mps 734 mmHg 81%
    07:00 +13°C° 0 mm 3 mps 734 mmHg 82%
    08:00 +13°C° 0 mm 3 mps 734 mmHg 80%
    09:00 +14°C° 0 mm 3 mps 735 mmHg 78%
    10:00 +16°C° 0 mm 3 mps 735 mmHg 75%
    11:00 +17°C° 0 mm 3 mps 735 mmHg 70%
    12:00 +18°C° 0 mm 2 mps 735 mmHg 65%
    13:00 +20°C° 0 mm 2 mps 735 mmHg 60%
    14:00 +20°C° 0.1 mm 2 mps 735 mmHg 60%
    15:00 +20°C° 0.1 mm 2 mps 735 mmHg 59%
    16:00 +21°C° 0.1 mm 1 mps 735 mmHg 59%
    17:00 +20°C° 0.1 mm 1 mps 735 mmHg 64%
    18:00 +18°C° 0.1 mm 1 mps 735 mmHg 70%
    19:00 +16°C° 0.1 mm 1 mps 735 mmHg 75%
    20:00 +16°C° 0 mm 1 mps 735 mmHg 78%
    21:00 +15°C° 0 mm 1 mps 735 mmHg 80%
    22:00 +15°C° 0 mm 1 mps 735 mmHg 83%
    23:00 +14°C° 0 mm 1 mps 735 mmHg 84%

    25 September, Wednesday

    Time Temperature Precipitation Wind Pressure Humidity
    00:00 +14°C° 0 mm 1 mps 734 mmHg 85%
    01:00 +13°C° 0 mm 0 mps 734 mmHg 86%
    02:00 +14°C° 0 mm 1 mps 734 mmHg 85%
    03:00 +14°C° 0 mm 1 mps 734 mmHg 85%
    04:00 +14°C° 0 mm 1 mps 733 mmHg 85%
    05:00 +15°C° 0 mm 1 mps 733 mmHg 85%
    06:00 +15°C° 0 mm 2 mps 733 mmHg 85%
    07:00 +15°C° 0 mm 2 mps 733 mmHg 84%
    08:00 +16°C° 0 mm 3 mps 733 mmHg 80%
    09:00 +17°C° 0 mm 3 mps 733 mmHg 75%
    10:00 +18°C° 0 mm 3 mps 733 mmHg 71%
    11:00 +19°C° 0 mm 3 mps 733 mmHg 66%
    12:00 +20°C° 0 mm 3 mps 733 mmHg 61%
    13:00 +21°C° 0 mm 4 mps 732 mmHg 56%
    14:00 +20°C° 0 mm 4 mps 732 mmHg 58%
    15:00 +20°C° 0 mm 4 mps 732 mmHg 60%
    16:00 +20°C° 0 mm 4 mps 732 mmHg 62%
    17:00 +18°C° 0 mm 3 mps 732 mmHg 67%
    18:00 +17°C° 0 mm 3 mps 732 mmHg 73%
    19:00 +16°C° 0 mm 2 mps 732 mmHg 78%
    20:00 +16°C° 0 mm 2 mps 732 mmHg 79%
    21:00 +16°C° 0 mm 2 mps 732 mmHg 80%
    22:00 +16°C° 0 mm 3 mps 733 mmHg 81%
    23:00 +16°C° 0.3 mm 2 mps 733 mmHg 82%
    Show more